Location: Unspecified
(35.7250°N, 0.0000°E)
Time: 12:42:41
(UTC+00:00)

Vanguard 2 - Pass Details

Date: 22 June 2019
Orbit: 553 x 2938 km, 32.9° (Epoch: 22 July)

Event Time Altitude Azimuth Distance (km) Brightness Sun altitude
Rises 09:57:55 0° 264° (W) 3,415 10.6 60.5°
Reaches altitude 10° 09:59:59 10° 263° (W) 2,678 10.2 60.9°
Maximum altitude 10:06:29 74° 179° (S) 1,370 10.2 62.2°
Drops below altitude 10° 10:17:44 10° 97° (E) 4,457 12.0 64.3°
Sets 10:22:10 0° 96° (E) 5,829 12.4 65.2°
